Weather in Palmas

Brazil     10°10′09″S   48°19′55″W
temp.,
°C
wind,
m/s
gust,
m/s
humid.,
%
clouds,
%
prec.,
mm/h
press.,
hPa
HPBL,
m
8 march, mon
mon800:00+22ene1183100 0.0 101223
03:00+22ene128865 0.0 101126
06:00+21nw119134 0.3 101123
09:00+26sw118154 1.3 1013344
12:00+29w117189 0.7 10121017
15:00+27w128192 3.6 1009611
18:00+25ssw1291100 0.8 100842
21:00+23s1193100 0.8 101224
9 march, tue
tue900:00+22s0195100 1.1 101224
03:00+22sse1296100 2.8 101025
06:00+21sse1196100 0.1 101023
09:00+26ssw128593 0.3 1012280
12:00+28wsw227953 4.1 1010683
15:00+30sw116348 5.6 10071261
18:00+26sw1181100 0.1 100626
21:00+23nnw119398 1.9 100923
10 march, wed
wed1000:00+22wsw019497 2.2 101024
03:00+22s019598 3.9 100923
06:00+21se119686 2.9 101027
09:00+26sw118768 3.4 1012217
12:00+31nw116520 2.0 10101188
15:00+27nw228245 5.0 1007605
18:00+25sw119092 2.5 100724
21:00+23wnw019296 3.6 101024
11 march, thu
thu1100:00+23wsw0191100 0.6 101123
03:00+21s2595100 2.3 1010186
06:00+21s269999 2.7 1012247
09:00+23s249199 2.8 1014421
12:00+27ssw347599 0.2 1012733
15:00+28s237374 0.7 1009915
18:00+25s249254 1.8 1008162
21:00+22ssw129673 2.0 101126
12 march, fri
fri1200:00+22s119696 0.1 101226
03:00+21sw119691 0.6 101024
06:00+20s119879 2.4 101124
09:00+24ssw239186 5.1 1013203
12:00+27ssw348221 3.6 1011562
15:00+28ssw238260 8.8 1008581
18:00+25ssw1189100 2.4 100824
21:00+23se019188 2.4 101024